EW5490 Weather Reports


Display with metric or nautical units.
time (UTC)temp
F
wind
direction
speed
MPH
gust
MPH
rain 1hr
in
rain 24hr
in
rain mn
in
humidity
%
barometer
mb
20260509173003 59 348 9.0 19.0 0.00 0.00 0.00 80 1003.5
20260509171601 59 14 9.0 15.0 0.00 0.00 0.00 80 1003.9
20260509170107 59 328 6.0 16.0 0.00 0.00 0.00 78 1004.0
20260509164600 59 333 5.0 11.0 0.00 0.00 0.00 77 1004.0
20260509163100 60 333 6.0 13.0 0.00 0.00 0.00 74 1004.0
20260509161557 60 22 5.0 13.0 0.00 0.00 0.00 70 1004.1
20260509160057 61 355 7.0 13.0 0.00 0.00 0.00 67 1004.2
20260509154556 62 350 5.0 10.0 0.00 0.00 0.00 65 1004.0
20260509153105 62 342 5.0 14.0 0.00 0.00 0.00 62 1004.0
20260509151555 63 303 6.0 16.0 0.00 0.00 0.00 62 1004.2
20260509150054 63 326 6.0 12.0 0.00 0.00 0.00 62 1004.2
20260509144553 63 321 6.0 13.0 0.00 0.00 0.00 61 1004.1
20260509143052 64 307 7.0 15.0 0.00 0.00 0.00 59 1004.1
20260509141551 64 313 8.0 18.0 0.00 0.00 0.00 59 1004.2
20260509140050 66 296 10.0 21.0 0.00 0.00 0.00 56 1004.5
20260509134549 66 277 8.0 15.0 0.00 0.00 0.00 55 1004.4
20260509133048 67 288 8.0 17.0 0.00 0.00 0.00 55 1004.4
20260509131546 67 345 10.0 17.0 0.00 0.00 0.00 55 1004.4
20260509130050 68 281 8.0 16.0 0.00 0.00 0.00 55 1004.6
20260509124549 67 292 10.0 17.0 0.00 0.00 0.00 57 1004.9
20260509123039 67 284 8.0 17.0 0.00 0.00 0.00 56 1005.5
20260509121536 66 5 7.0 17.0 0.00 0.00 0.00 55 1005.7
20260509120034 68 33 9.0 16.0 0.00 0.00 0.00 53 1005.9
20260509114531 68 340 9.0 19.0 0.00 0.00 0.00 54 1006.2
20260509113028 68 306 8.0 16.0 0.00 0.00 0.00 55 1006.6
20260509111526 67 331 9.0 16.0 0.00 0.00 0.00 57 1006.8
20260509110023 66 308 11.0 17.0 0.00 0.00 0.00 61 1007.0
20260509104520 66 317 9.0 16.0 0.00 0.00 0.00 59 1007.1
20260509103017 66 330 8.0 16.0 0.00 0.00 0.00 59 1007.5
20260509101523 66 309 10.0 18.0 0.00 0.00 0.00 58 1007.6
20260509100014 65 345 11.0 16.0 0.00 0.00 0.00 59 1007.8
20260509094511 65 338 8.0 20.0 0.00 0.00 0.00 62 1007.9
20260509093007 64 17 8.0 18.0 0.00 0.00 0.00 64 1008.3
20260509091507 63 348 10.0 16.0 0.00 0.00 0.00 65 1008.6
20260509090002 63 9 7.0 16.0 0.00 0.00 0.00 67 1008.7
20260509084602 63 346 8.0 13.0 0.00 0.00 0.00 65 1008.9
20260509083101 62 327 6.0 13.0 0.00 0.00 0.00 68 1009.3
20260509081652 62 5 4.0 11.0 0.00 0.00 0.00 70 1009.4
20260509080053 61 322 3.0 11.0 0.00 0.00 0.00 72 1009.4
20260509074551 60 325 7.0 13.0 0.00 0.00 0.00 72 1009.7
20260509073043 60 324 4.0 10.0 0.00 0.00 0.00 72 1009.6
20260509071543 59 335 4.0 9.0 0.00 0.00 0.00 71 1009.7
20260509070040 59 342 5.0 11.0 0.00 0.00 0.00 71 1009.8
20260509064536 59 17 4.0 8.0 0.00 0.00 0.00 72 1009.5
20260509063034 57 23 2.0 4.0 0.00 0.00 0.00 75 1009.6
20260509061534 55 46 3.0 5.0 0.00 0.00 0.00 77 1009.5
20260509060031 53 22 1.0 4.0 0.00 0.00 0.00 79 1009.8
20260509054532 53 28 1.0 3.0 0.00 0.00 0.00 78 1009.9
20260509053038 54 46 1.0 2.0 0.00 0.00 0.00 76 1009.9
20260509051525 56 46 0.0 3.0 0.00 0.00 0.00 74 1009.9
20260509050024 56 46 1.0 3.0 0.00 0.00 0.00 73 1009.9
20260509044524 56 60 1.0 5.0 0.00 0.00 0.00 74 1009.9
20260509043021 56 55 2.0 4.0 0.00 0.00 0.00 74 1010.0
20260509041521 56 53 2.0 4.0 0.00 0.00 0.00 75 1010.0
20260509040027 56 70 1.0 3.0 0.00 0.00 0.00 75 1010.1
20260509034518 56 71 1.0 3.0 0.00 0.00 0.00 76 1010.1
20260509033016 55 73 1.0 3.0 0.00 0.00 0.00 77 1010.3
20260509031515 55 73 1.0 3.0 0.00 0.00 0.00 78 1010.4
20260509030026 55 73 1.0 3.0 0.00 0.00 0.00 81 1010.6
20260509024514 55 73 0.0 2.0 0.00 0.00 0.00 81 1010.8
20260509023009 55 73 0.0 2.0 0.00 0.00 0.00 80 1011.0
20260509021508 55 73 0.0 2.0 0.00 0.00 0.00 81 1011.0
20260509020006 55 73 1.0 3.0 0.00 0.00 0.00 81 1011.2
20260509014505 55 73 1.0 2.0 0.00 0.00 0.00 81 1011.4
20260509013002 55 73 0.0 0.0 0.00 0.00 0.00 81 1011.7
20260509011601 56 73 0.0 0.0 0.00 0.00 0.00 81 1012.0
20260509010057 56 73 0.0 0.0 0.00 0.00 0.00 81 1012.1
20260509004600 56 73 0.0 1.0 0.00 0.00 0.00 81 1012.2
20260509003058 56 73 0.0 2.0 0.00 0.00 0.00 80 1012.3
20260509001553 57 73 1.0 3.0 0.00 0.00 0.00 79 1012.4
20260509000051 57 71 1.0 2.0 0.00 0.00 0.00 79 1012.5
20260508234548 57 71 0.0 3.0 0.00 0.00 0.00 78 1012.6
20260508233048 58 71 1.0 3.0 0.00 0.00 0.00 77 1012.6
20260508231547 58 68 1.0 3.0 0.00 0.00 0.00 76 1012.7
20260508230045 58 63 1.0 4.0 0.00 0.00 0.00 76 1012.8
20260508224558 57 55 1.0 3.0 0.00 0.00 0.00 77 1013.0
20260508223049 58 51 1.0 3.0 0.00 0.00 0.00 77 1013.2
20260508221539 58 55 2.0 4.0 0.00 0.00 0.00 78 1013.3
20260508220047 57 53 1.0 3.0 0.00 0.00 0.00 78 1013.4
20260508214538 58 52 1.0 4.0 0.00 0.00 0.00 77 1013.6
20260508213034 57 64 1.0 3.0 0.00 0.00 0.00 78 1013.8
20260508211534 58 60 1.0 3.0 0.00 0.00 0.00 79 1013.9
20260508210033 58 61 2.0 3.0 0.00 0.00 0.00 79 1014.1
20260508204533 58 55 1.0 3.0 0.00 0.00 0.00 80 1014.1
20260508203030 58 55 1.0 3.0 0.00 0.00 0.00 80 1014.2
20260508201531 58 55 1.0 3.0 0.00 0.00 0.00 78 1014.3
20260508200032 59 55 0.0 3.0 0.00 0.00 0.00 77 1014.3
20260508194534 58 55 1.0 3.0 0.00 0.00 0.00 77 1014.3
20260508193026 58 50 1.0 2.0 0.00 0.00 0.00 78 1014.4
20260508191533 58 50 0.0 2.0 0.00 0.00 0.00 78 1014.5
20260508190024 59 50 1.0 3.0 0.00 0.00 0.00 78 1014.4
20260508184525 59 51 2.0 3.0 0.00 0.00 0.00 79 1014.6
20260508183029 59 53 1.0 4.0 0.00 0.00 0.00 79 1014.6
20260508181520 60 117 0.0 3.0 0.00 0.00 0.00 78 1014.7
20260508180022 60 130 0.0 2.0 0.00 0.00 0.00 77 1014.8
20260508174521 61 130 0.0 0.0 0.00 0.00 0.00 76 1014.9